sat.trackr.live / text

‹ back to catalog

STARLINK-36615

NORAD 67621 · 2026-020E

PAYLOAD ACTIVE UNKNOWN

§ Identity

Operator
Country
US
Launch date
2026-01-30
Launch site
AFETR
Launch vehicle
Mass (kg)
RCS (m²)

Purposes: comms

External: N2YO · Heavens-Above · Gunter

§ Orbital elements

Epoch: 2026-05-25T03:38:56.588640Z

Period
94.27 min
Inclination
43.0013°
Eccentricity
0.0000838
Mean motion
15.27597306 rev/d
Perigee alt
482.4 km
Apogee alt
483.6 km
Semi-major
6,861.1 km
B*
9.4196e-4
RAAN
68.2847°
Arg perigee
255.4116°
Mean anomaly
104.6643°
Rev number
1,780

§ Raw data

STARLINK-366151 67621U 26020E   26145.15204385  .00025763  00000+0  94196-3 0  99922 67621  43.0013  68.2847 0000838 255.4116 104.6643 15.27597306 17808

JSON: /api/v1/satellites/67621 · /tle

For live sub-satellite position, see the globe view (requires WebGL).

§ Visibility from observer

Set your observer location to see the next 7 days of passes ≥ 10°. The values pass through the URL so the page stays shareable.

No JS? Fill the form by hand. The geolocation button needs JavaScript.